This is the latest recevied weather packets stored in our database for station/object KF0JHJ. If no packets are shown the sender has not sent any weather packets the latest 10 day(s).
| Time | Temp. | Humidity | Pressure | Rain* | Wind** | Luminosity | Snow |
|---|---|---|---|---|---|---|---|
| 1777751001 | 18.89° C | 38% | 1011.8 hPa | - | - | 591 W/m² | - |
| 1777750697 | 18.33° C | 38% | 1011.9 hPa | - | - | 603 W/m² | - |
| 1777750394 | 17.78° C | 35% | 1012.1 hPa | - | - | 636 W/m² | - |
| 1777750095 | 17.78° C | 36% | 1012.1 hPa | - | - | 631 W/m² | - |
| 1777749792 | 17.78° C | 36% | 1011.9 hPa | - | - | 652 W/m² | - |
| 1777749490 | 17.78° C | 38% | 1012.3 hPa | - | - | 674 W/m² | - |
| 1777749187 | 18.33° C | 37% | 1012.3 hPa | - | - | 621 W/m² | - |
| 1777748884 | 18.33° C | 40% | 1012.5 hPa | - | - | 672 W/m² | - |
| 1777748581 | 17.22° C | 38% | 1012.6 hPa | - | - | 641 W/m² | - |
| 1777748276 | 17.22° C | 36% | 1013 hPa | - | - | 676 W/m² | - |
| 1777747973 | 17.22° C | 37% | 1012.8 hPa | - | - | 623 W/m² | - |
| 1777747669 | 16.67° C | 39% | 1013 hPa | - | - | 629 W/m² | - |
| 1777747365 | 16.11° C | 39% | 1013 hPa | - | - | 209 W/m² | - |
| 1777747062 | 16.67° C | 39% | 1013.2 hPa | - | - | 725 W/m² | - |
| 1777746758 | 16.67° C | 37% | 1013.4 hPa | - | - | 658 W/m² | - |
| 1777746453 | 16.67° C | 38% | 1013.5 hPa | - | - | 385 W/m² | - |
| 1777746149 | 16.67° C | 39% | 1013.5 hPa | - | - | 670 W/m² | - |
| 1777745846 | 16.67° C | 38% | 1013.7 hPa | - | - | 663 W/m² | - |
| 1777745546 | 16.11° C | 40% | 1013.7 hPa | - | - | 652 W/m² | - |
| 1777745242 | 16.11° C | 36% | 1014 hPa | - | - | 648 W/m² | - |
| 1777744940 | 16.11° C | 39% | 1014 hPa | - | - | 590 W/m² | - |
| 1777744639 | 16.67° C | 41% | 1014.1 hPa | - | - | 681 W/m² | - |
| 1777744334 | 15.56° C | 38% | 1014 hPa | - | - | 651 W/m² | - |
| 1777744032 | 16.11° C | 39% | 1014.3 hPa | - | - | 653 W/m² | - |
| 1777743729 | 15.56° C | 40% | 1014.3 hPa | - | - | 669 W/m² | - |
* Rain since midnight (hover to see other rain measurements)
** Current wind speed in m/s (hover to see current wind gust speed)